Flag for U.S.A. Weather past 2 weeks in Newport News, Virginia, U.S.A.

Now
77 °F

Overcast.


Feels Like: 79 °F
Forecast: 72 / 86 °F
Wind: 7 mph from South

Location: Newport News / Williamsburg International Airport

Current Time: Aug 31, 2015 at 8:17:49 PM

Latest Report: Aug 31, 2015 at 6:54 PM


Visibility: 10 mi

Pressure: 30.08 "Hg

Humidity: 74%

Dew point: 68 °F

Location of Newport NewsLocation

Historic Weather in Newport News — Graph

°F

Newport News temperature yesterday

Maximum temperature yesterday: 86 °F (at 12:54 PM)
Minimum temperature yesterday: 61 °F (at 4:54 AM)
Average temperature yesterday: 75 °F

Past Weeks' High & Low Weather Summary

 TemperatureHumidityPressure
High91 °F (Aug 20, 3:54 PM)97% (Aug 21, 4:54 AM)30.24 "Hg (Aug 21, 4:54 AM)
Low59 °F (Aug 29, 4:54 AM)35% (Aug 17, 4:54 PM)29.85 "Hg (Aug 24, 4:54 PM)
Average77 °F70%30.03 "Hg
* Reported Aug 16 6:54 PM — Aug 31 6:54 PM, Newport News, Weather by CustomWeather, © 2015

Note: Actual official high and low records may vary slightly from our data, if they occured in-between our weather recording intervals... More about our weather records

Advertising

Newport News weather history for previous 24 hours

 ConditionsComfort  
Time TempWeatherWind HumidityBarometerVisibility
6:54 PM
Mon, Aug 31
77 °FOvercast.7 mph74%30.08 "Hg10 mi
5:54 PM77 °FOvercast.8 mph71%30.09 "Hg10 mi
4:54 PM76 °FLight rain. Mostly cloudy.6 mph80%30.09 "Hg4 mi
3:54 PM79 °FMostly cloudy.10 mph69%30.09 "Hg10 mi
2:54 PM80 °FScattered clouds.6 mph67%30.09 "Hg10 mi
1:54 PM79 °FPartly sunny.6 mph69%30.11 "Hg10 mi
12:54 PM76 °FLight rain. Broken clouds.9 mph82%30.12 "Hg10 mi
11:54 AM77 °FLight rain. Broken clouds.9 mph74%30.13 "Hg10 mi
10:54 AM78 °FOvercast.12 mph74%30.14 "Hg10 mi
9:54 AM78 °FOvercast.5 mph66%30.12 "Hg10 mi
8:54 AM77 °FMostly cloudy.6 mph71%30.12 "Hg10 mi
7:54 AM76 °FOvercast.3 mph74%30.11 "Hg10 mi
6:54 AM75 °FOvercast.3 mph79%30.11 "Hg10 mi
5:54 AM76 °FMostly cloudy.6 mph74%30.10 "Hg10 mi
4:54 AM75 °FOvercast.7 mph79%30.10 "Hg10 mi
3:54 AM76 °FOvercast.5 mph80%30.09 "Hg10 mi
2:54 AM76 °FMostly cloudy.3 mph80%30.09 "Hg10 mi
1:54 AM76 °FOvercast.7 mph85%30.10 "Hg10 mi
12:54 AM77 °FPassing clouds.7 mph79%30.11 "Hg10 mi
11:54 PM
Sun, Aug 30
78 °FPassing clouds.7 mph76%30.11 "Hg10 mi
10:54 PM78 °FClear.7 mph76%30.11 "Hg10 mi
9:54 PM78 °FClear.5 mph69%30.11 "Hg10 mi
8:54 PM78 °FClear.6 mph66%30.11 "Hg10 mi
Weather by CustomWeather, © 2015

See weather overviewHow to use our weather pages